[[{"header":{"parameterUnit":"m.s-1","parameterCategory":1,"la1":30.2991,"la2":30.254,"lo1":-89.0895,"lo2":-89.0444,"dy":0.0017,"dx":0.0017,"nx":28,"ny":28,"refTime":"2024-02-24T09:00:00:Z","depth":0,"parameterNumber":2,"parameterNumberName":"U-component_of_WINDS"},"data":[0,0,0,0,0,0,0,0,0,0,0,0,0,0,0,0,0,0,0,0,0,0,0,0,0,0,0,0,0,0,0,0,0,0,0,0,0,0,0,0,0,0,0,0,0,0,0,0,0,0,0,0,0,0,0,0,0,0,-1.723,-1.7231,0,-1.7262,-1.7263,-1.7263,-1.7207,-1.7205,-1.7204,-1.7202,-1.7235,-1.7238,-1.724,0,0,0,0,0,0,0,0,0,0,0,0,0,-1.7122,-1.7125,-1.723,-1.7231,-1.7231,-1.7262,-1.7263,-1.7263,-1.7208,-1.7205,-1.7203,-1.7201,-1.7234,-1.7238,-1.7241,0,0,0,0,0,0,0,0,0,0,0,0,0,-1.7163,-1.7125,-1.723,-1.7207,-1.7205,-1.7262,-1.7263,-1.7263,-1.7208,-1.7205,-1.7203,-1.72,-1.7233,-1.7237,-1.7241,-1.7322,0,0,-1.7253,-1.7255,0,0,0,0,0,0,0,0,-1.7161,-1.7167,-1.721,-1.7209,-1.7207,-1.7228,-1.7237,-1.7283,-1.7209,-1.7207,-1.7202,-1.7199,-1.7235,-1.7239,-1.7251,-1.7324,-1.7325,-1.7254,-1.7256,-1.7258,-1.7259,0,0,0,0,0,0,0,-1.7158,-1.7166,-1.7243,-1.7211,-1.7209,-1.7196,-1.7198,-1.7245,-1.7237,-1.7207,-1.7203,-1.7208,-1.7234,-1.7247,-1.7251,-1.7325,-1.7253,-1.7257,-1.7259,-1.7261,-1.7467,-1.747,0,0,0,0,0,0,-1.7158,-1.7164,-1.7242,-1.7244,-1.7177,-1.72,-1.7203,-1.7224,-1.7236,-1.7235,-1.721,-1.7205,-1.7242,-1.7247,-1.7252,-1.7349,-1.7258,-1.7261,-1.7264,-1.7464,-1.7468,-1.7471,0,0,0,0,0,0,-1.7156,-1.7166,-1.7241,-1.7203,-1.7211,-1.7205,-1.7229,-1.7226,-1.724,-1.7238,-1.7236,-1.7225,-1.724,-1.7247,-1.7305,-1.7349,-1.7263,-1.7267,-1.746,-1.7465,-1.7469,-1.7542,0,0,0,0,0,0,-1.7153,-1.7165,-1.7196,-1.7204,-1.7214,-1.7293,-1.7232,-1.7229,-1.7247,-1.724,-1.7252,-1.7251,-1.7238,-1.73,-1.7309,-1.7353,-1.727,-1.7456,-1.7462,-1.7468,-1.7535,-1.7548,-1.7559,0,0,0,0,0,-1.715,-1.7215,-1.7198,-1.7207,-1.7251,-1.7296,-1.7301,-1.7285,-1.725,-1.7281,-1.728,-1.7251,-1.7342,-1.7306,-1.7316,-1.7362,-1.7453,-1.7461,-1.7467,-1.753,-1.7546,-1.7559,0,0,0,0,0,0,-1.7212,-1.7215,-1.7196,-1.7266,-1.7281,-1.7286,-1.7325,-1.7301,-1.7327,-1.732,-1.7298,-1.7301,-1.7364,-1.7369,-1.7328,-1.7441,-1.7392,-1.7402,-1.7436,-1.7451,-1.7463,-1.7461,-1.7273,0,0,0,0,0,-1.7234,-1.7269,-1.727,-1.7332,-1.734,-1.7331,-1.735,-1.7336,-1.735,-1.7357,-1.736,-1.7375,-1.7408,-1.7429,-1.7459,-1.7535,-1.7538,-1.7572,-1.7584,-1.7593,-1.7602,-1.7644,-1.7659,-1.7494,-1.7494,-1.7494,0,0,-1.728,-1.7286,-1.731,-1.7345,-1.7354,-1.7392,-1.7337,-1.7379,-1.7407,-1.7363,-1.7419,-1.7422,-1.7438,-1.7506,-1.7536,-1.7511,-1.7648,-1.7602,-1.761,-1.7614,-1.7653,-1.7668,-1.7682,-1.7498,-1.7498,-1.7497,0,0,-1.7382,-1.739,-1.7443,-1.7454,-1.747,-1.7463,-1.7476,-1.7485,-1.7485,-1.754,-1.7509,-1.7541,-1.7597,-1.761,-1.7624,-1.7732,-1.7707,-1.7742,-1.7805,-1.7846,-1.7859,-1.7871,-1.791,-1.7925,-1.7751,-1.7751,-1.7751,0,-1.7437,-1.7493,-1.7473,-1.7517,-1.7534,-1.7496,-1.7549,-1.7561,-1.7586,-1.7598,-1.757,-1.764,-1.7648,-1.7719,-1.7746,-1.7758,-1.7772,-1.7742,-1.7859,-1.787,-1.7881,-1.7918,-1.7933,-1.7755,-1.7755,-1.7754,-1.7754,0,-1.756,-1.7599,-1.7639,-1.7665,-1.7686,-1.7734,-1.7722,-1.7746,-1.773,-1.7727,-1.7785,-1.7793,-1.7824,-1.7839,-1.7824,-1.7909,-1.7893,-1.7862,-1.7813,-1.7901,-1.7936,-1.795,-1.7762,-1.776,-1.7759,-1.7758,0,0,-1.7704,-1.7717,-1.7733,-1.7744,-1.7758,-1.7788,-1.7836,-1.7866,-1.7887,-1.7905,-1.7945,-1.7993,-1.7965,-1.7981,-1.7967,-1.8003,-1.8089,-1.7968,-1.7968,-1.7991,-1.8184,-1.8208,-1.8225,-1.8072,-1.8074,-1.8077,-1.8183,0,-1.7807,-1.7888,-1.7872,-1.7952,-1.7988,-1.7952,-1.7994,-1.8007,-1.8006,-1.8036,-1.8034,-1.8069,-1.8029,-1.8038,-1.8072,-1.8072,-1.8128,-1.8063,-1.811,-1.8111,-1.8108,-1.8243,-1.8269,-1.8369,-1.8197,-1.8199,-1.8201,0,-1.7938,-1.7962,-1.8045,-1.8055,-1.8069,-1.8107,-1.8134,-1.8163,-1.8178,-1.8174,-1.8193,-1.8172,-1.8219,-1.8168,-1.8234,-1.819,-1.8208,-1.8211,-1.8214,-1.8219,-1.8162,-1.8253,-1.84,-1.8416,-1.8222,-1.822,-1.8219,0,-1.8036,-1.8089,-1.8146,-1.8156,-1.8168,-1.8196,-1.8202,-1.8214,-1.8234,-1.8257,-1.827,-1.8298,-1.8314,-1.8337,-1.8325,-1.8288,-1.8393,-1.8341,-1.8392,-1.8392,-1.8416,-1.8415,-1.857,-1.8426,-1.8426,-1.8426,-1.8425,0,-1.8154,-1.8207,-1.819,-1.8225,-1.8284,-1.8264,-1.8323,-1.8325,-1.8336,-1.8372,-1.8342,-1.8376,-1.8357,-1.839,-1.838,-1.8437,-1.8444,-1.8442,-1.844,-1.8446,-1.8446,-1.8458,-1.8451,-1.8429,-1.8429,-1.8428,-1.8427,0,-1.8273,-1.8264,-1.8324,-1.8331,-1.8334,-1.8377,-1.8383,-1.8416,-1.8412,-1.8457,-1.8467,-1.8461,-1.8497,-1.8487,-1.8527,-1.852,-1.8592,-1.858,-1.8588,-1.8585,-1.8637,-1.8633,-1.8806,-1.8828,-1.8669,-1.867,-1.8672,0,-1.835,-1.839,-1.8401,-1.8422,-1.8431,-1.8466,-1.8486,-1.8468,-1.849,-1.8511,-1.8542,-1.8576,-1.8603,-1.8663,-1.8663,-1.8693,-1.8682,-1.874,-1.8686,-1.8692,-1.8684,-1.8683,-1.8687,-1.8752,-1.8754,-1.8755,-1.8756,0,-1.8486,-1.848,-1.8509,-1.8538,-1.8563,-1.8584,-1.8603,-1.8622,-1.8606,-1.8632,-1.867,-1.869,-1.8731,-1.8766,-1.8794,-1.8801,-1.8777,-1.8773,-1.8787,-1.8794,-1.8798,-1.8798,-1.8618,-1.877,-1.8768,-1.8767,-1.8766,-1.8766,-1.8587,-1.8622,-1.8635,-1.8669,-1.8682,-1.87,-1.8732,-1.8732,-1.8763,-1.8795,-1.8782,-1.8826,-1.884,-1.8875,-1.8886,-1.8919,-1.8897,-1.8917,-1.8922,-1.8927,-1.8934,-1.8791,-1.8924,-1.8924,-1.8923,-1.8923,-1.8923,0,-1.8724,-1.8731,-1.8762,-1.879,-1.8817,-1.8791,-1.881,-1.8835,-1.8874,-1.8889,-1.8916,-1.8959,-1.8993,-1.8995,-1.9026,-1.9053,-1.9043,-1.9062,-1.9061,-1.9063,-1.8952,-1.8937,-1.907,-1.907,-1.907,-1.907,-1.907,-1.907,-1.8798,-1.8855,-1.885,-1.8913,-1.8919,-1.8962,-1.8975,-1.8992,-1.9005,-1.9055,-1.9082,-1.9083,-1.9094,-1.9126,-1.9156,-1.9155,-1.9169,-1.9193,-1.9188,-1.9085,-1.907,-1.9057,-1.9043,-1.9196,-1.9196,-1.9297,-1.9297,-1.9298]},{"header":{"parameterUnit":"m.s-1","parameterCategory":1,"la1":30.2991,"la2":30.254,"lo1":-89.0895,"lo2":-89.0444,"dy":0.0017,"dx":0.0017,"nx":28,"ny":28,"refTime":"2024-02-24T09:00:00:Z","depth":0,"parameterNumber":3,"parameterNumberName":"V-component_of_WINDS"},"data":[0,0,0,0,0,0,0,0,0,0,0,0,0,0,0,0,0,0,0,0,0,0,0,0,0,0,0,0,0,0,0,0,0,0,0,0,0,0,0,0,0,0,0,0,0,0,0,0,0,0,0,0,0,0,0,0,0,0,-0.6624,-0.6626,0,-0.6742,-0.6744,-0.6745,-0.6793,-0.6793,-0.6793,-0.6793,-0.6913,-0.6917,-0.692,0,0,0,0,0,0,0,0,0,0,0,0,0,-0.644,-0.6443,-0.6624,-0.6626,-0.6627,-0.6742,-0.6744,-0.6745,-0.6793,-0.6793,-0.6793,-0.6792,-0.6912,-0.6916,-0.692,0,0,0,0,0,0,0,0,0,0,0,0,0,-0.6535,-0.6444,-0.6624,-0.6665,-0.667,-0.6742,-0.6744,-0.6746,-0.6793,-0.6793,-0.6793,-0.6792,-0.6911,-0.6916,-0.6921,-0.6961,0,0,-0.6937,-0.6939,0,0,0,0,0,0,0,0,-0.653,-0.6542,-0.6658,-0.6662,-0.6668,-0.6753,-0.6723,-0.6818,-0.6794,-0.6747,-0.6793,-0.6792,-0.686,-0.6869,-0.6892,-0.6966,-0.6971,-0.6937,-0.694,-0.6942,-0.6944,0,0,0,0,0,0,0,-0.6523,-0.6537,-0.6671,-0.6659,-0.6665,-0.6677,-0.669,-0.6741,-0.6804,-0.6751,-0.6754,-0.6768,-0.6863,-0.6887,-0.6896,-0.6973,-0.6937,-0.6942,-0.6945,-0.6947,-0.7086,-0.7086,0,0,0,0,0,0,-0.651,-0.6531,-0.6667,-0.6675,-0.6596,-0.6681,-0.6696,-0.6726,-0.6804,-0.6815,-0.6768,-0.677,-0.6879,-0.6889,-0.69,-0.6952,-0.6942,-0.6947,-0.695,-0.7085,-0.7086,-0.7087,0,0,0,0,0,0,-0.6506,-0.6521,-0.6663,-0.6604,-0.6623,-0.6685,-0.6718,-0.6728,-0.6753,-0.6817,-0.6828,-0.6781,-0.6879,-0.6893,-0.6945,-0.6957,-0.695,-0.6954,-0.7085,-0.7086,-0.7086,-0.7056,0,0,0,0,0,0,-0.65,-0.652,-0.6535,-0.6604,-0.6626,-0.6706,-0.6719,-0.6731,-0.6762,-0.6765,-0.6832,-0.6843,-0.688,-0.6937,-0.695,-0.6964,-0.6958,-0.7084,-0.7085,-0.7086,-0.7056,-0.7056,-0.7055,0,0,0,0,0,-0.6493,-0.6522,-0.6536,-0.6552,-0.6647,-0.6706,-0.6719,-0.676,-0.6763,-0.6779,-0.682,-0.6841,-0.6953,-0.6942,-0.6957,-0.6973,-0.7083,-0.7085,-0.7086,-0.7057,-0.7056,-0.7055,0,0,0,0,0,0,-0.6453,-0.6532,-0.6548,-0.66,-0.6646,-0.6714,-0.6737,-0.6758,-0.6805,-0.6806,-0.6855,-0.687,-0.6918,-0.6951,-0.6937,-0.7015,-0.702,-0.7024,-0.6992,-0.6992,-0.6992,-0.6983,-0.6963,0,0,0,0,0,-0.6451,-0.6492,-0.6559,-0.6598,-0.662,-0.6674,-0.6702,-0.673,-0.6779,-0.6799,-0.6844,-0.6891,-0.6937,-0.6967,-0.7012,-0.7061,-0.7077,-0.7079,-0.7078,-0.7078,-0.7081,-0.711,-0.7112,-0.7091,-0.7091,-0.7091,0,0,-0.6445,-0.6493,-0.6517,-0.6591,-0.663,-0.6672,-0.669,-0.6734,-0.6766,-0.6806,-0.6858,-0.6893,-0.6949,-0.6999,-0.7024,-0.7028,-0.709,-0.708,-0.7078,-0.7082,-0.7111,-0.7113,-0.7115,-0.7092,-0.7092,-0.7092,0,0,-0.6458,-0.6498,-0.6535,-0.6574,-0.6633,-0.6668,-0.6677,-0.6742,-0.6767,-0.682,-0.6851,-0.6889,-0.6967,-0.7006,-0.7036,-0.7062,-0.7084,-0.7076,-0.7074,-0.7101,-0.7102,-0.7104,-0.7114,-0.7117,-0.7079,-0.7079,-0.7079,0,-0.6444,-0.6509,-0.6552,-0.6594,-0.6626,-0.6664,-0.6702,-0.6737,-0.6808,-0.6829,-0.6832,-0.6931,-0.6972,-0.7032,-0.7039,-0.7061,-0.7073,-0.7069,-0.7099,-0.7101,-0.7103,-0.7113,-0.7116,-0.7078,-0.7078,-0.7078,-0.7078,0,-0.6489,-0.6533,-0.6556,-0.6624,-0.6658,-0.6698,-0.6747,-0.6777,-0.6801,-0.6836,-0.689,-0.694,-0.6996,-0.7013,-0.7037,-0.7077,-0.7078,-0.7089,-0.7095,-0.7103,-0.7113,-0.7117,-0.7076,-0.7076,-0.7077,-0.7077,0,0,-0.648,-0.657,-0.6578,-0.6609,-0.6676,-0.6712,-0.6753,-0.6809,-0.6833,-0.688,-0.6917,-0.6982,-0.6993,-0.7027,-0.7056,-0.7079,-0.7097,-0.7088,-0.709,-0.7088,-0.7144,-0.7136,-0.7139,-0.7111,-0.7112,-0.7113,-0.714,0,-0.6501,-0.6577,-0.6617,-0.6677,-0.6718,-0.6754,-0.6791,-0.6836,-0.6869,-0.691,-0.6947,-0.6992,-0.7003,-0.7024,-0.7049,-0.709,-0.7109,-0.7088,-0.7146,-0.7147,-0.7131,-0.7145,-0.7136,-0.7158,-0.7144,-0.7145,-0.7145,0,-0.6537,-0.6584,-0.6647,-0.671,-0.6729,-0.676,-0.6814,-0.6852,-0.6904,-0.6927,-0.6965,-0.6993,-0.7038,-0.704,-0.7103,-0.7088,-0.7113,-0.7137,-0.7139,-0.7146,-0.7147,-0.7153,-0.7167,-0.717,-0.7152,-0.7151,-0.7151,0,-0.6524,-0.6603,-0.6651,-0.6677,-0.6751,-0.6772,-0.6804,-0.6856,-0.6886,-0.6934,-0.6954,-0.7005,-0.7034,-0.7073,-0.7115,-0.7112,-0.7173,-0.7179,-0.7194,-0.7193,-0.7206,-0.7205,-0.7224,-0.7221,-0.7221,-0.7221,-0.7221,0,-0.6544,-0.6582,-0.6647,-0.6676,-0.6719,-0.6765,-0.6806,-0.684,-0.6886,-0.6923,-0.6957,-0.6991,-0.7044,-0.7084,-0.7117,-0.7164,-0.7176,-0.7196,-0.7205,-0.7194,-0.7191,-0.7212,-0.7211,-0.7222,-0.7222,-0.7222,-0.7221,0,-0.6538,-0.6583,-0.6638,-0.6703,-0.6721,-0.675,-0.6806,-0.6836,-0.6871,-0.6917,-0.6931,-0.6986,-0.7036,-0.7081,-0.7147,-0.7169,-0.7217,-0.7227,-0.7199,-0.7204,-0.7217,-0.7215,-0.7251,-0.7258,-0.7249,-0.7249,-0.7249,0,-0.6548,-0.6578,-0.6647,-0.6674,-0.6705,-0.6748,-0.678,-0.6826,-0.6857,-0.6918,-0.6941,-0.6993,-0.7037,-0.7114,-0.716,-0.721,-0.7223,-0.7232,-0.7231,-0.7218,-0.7223,-0.7221,-0.7225,-0.7231,-0.7231,-0.7231,-0.7231,0,-0.6562,-0.6582,-0.6627,-0.6679,-0.6715,-0.6758,-0.6803,-0.6823,-0.6877,-0.691,-0.6961,-0.6995,-0.7062,-0.7114,-0.7169,-0.7202,-0.7226,-0.7231,-0.7237,-0.7227,-0.7209,-0.7219,-0.7198,-0.723,-0.723,-0.723,-0.723,-0.723,-0.6565,-0.6593,-0.6645,-0.6694,-0.6731,-0.6772,-0.6803,-0.6843,-0.6886,-0.6944,-0.6968,-0.702,-0.7071,-0.7148,-0.7181,-0.7222,-0.7227,-0.7236,-0.7238,-0.724,-0.7238,-0.7202,-0.7232,-0.7232,-0.7232,-0.7232,-0.7232,0,-0.658,-0.6616,-0.666,-0.672,-0.6758,-0.6777,-0.6827,-0.6857,-0.6902,-0.6948,-0.699,-0.7049,-0.7098,-0.7148,-0.7201,-0.7224,-0.7236,-0.7236,-0.7235,-0.7243,-0.723,-0.722,-0.7226,-0.7226,-0.7226,-0.7226,-0.7226,-0.7226,-0.6593,-0.6642,-0.6668,-0.6736,-0.6772,-0.6823,-0.685,-0.6887,-0.6924,-0.6987,-0.7029,-0.7061,-0.7108,-0.7164,-0.7211,-0.7224,-0.7242,-0.7239,-0.7256,-0.7243,-0.7243,-0.7243,-0.7234,-0.7243,-0.7243,-0.7265,-0.7265,-0.7265]}]]